Time,TemperatureF,DewpointF,PressureIn,WindDirection,WindDirectionDegrees,WindSpeedMPH,WindSpeedGustMPH,Humidity,HourlyPrecipIn,Conditions,Clouds,dailyrainin,SoftwareType,DateUTC
2013-04-27 21:28:00,60.3,39.5,30.24,East,89,3.0,3.0,46,0.00,,OVC100,0.00,VWS V14.01,2013-04-28 01:28:00,
2013-04-27 21:33:00,59.2,40.1,30.24,NE,51,1.0,4.0,49,0.00,,CLR,0.00,VWS V14.01,2013-04-28 01:33:00,
2013-04-27 21:38:00,58.8,39.2,30.24,NNE,12,1.0,4.0,48,0.00,,CLR,0.00,VWS V14.01,2013-04-28 01:38:00,
2013-04-27 21:43:00,58.6,39.0,30.24,NE,46,3.0,5.0,48,0.00,,CLR,0.00,VWS V14.01,2013-04-28 01:43:00,
2013-04-27 21:48:00,58.3,39.8,30.24,NE,44,0.0,5.0,50,0.00,,CLR,0.00,VWS V14.01,2013-04-28 01:48:00,
2013-04-27 21:53:00,57.7,40.2,30.24,East,79,2.0,5.0,52,0.00,,CLR,0.00,VWS V14.01,2013-04-28 01:53:00,
2013-04-27 21:58:00,57.0,40.1,30.24,East,94,2.0,5.0,53,0.00,,CLR,0.00,VWS V14.01,2013-04-28 01:58:00,
2013-04-27 22:03:00,56.5,40.5,30.23,NE,53,2.0,6.0,55,0.00,,CLR,0.00,VWS V14.01,2013-04-28 02:03:00,
2013-04-27 22:08:00,56.2,40.3,30.24,East,89,2.0,6.0,55,0.00,,CLR,0.00,VWS V14.01,2013-04-28 02:08:00,
2013-04-27 22:13:00,55.9,40.5,30.24,East,84,2.0,6.0,56,0.00,,CLR,0.00,VWS V14.01,2013-04-28 02:13:00,
2013-04-27 22:18:00,55.6,40.6,30.24,ENE,77,3.0,6.0,57,0.00,,CLR,0.00,VWS V14.01,2013-04-28 02:18:00,
2013-04-27 22:23:00,55.2,40.7,30.24,NE,35,4.0,6.0,58,0.00,,CLR,0.00,VWS V14.01,2013-04-28 02:23:00,
2013-04-27 22:28:00,54.8,40.8,30.24,NE,41,1.0,6.0,59,0.00,,CLR,0.00,VWS V14.01,2013-04-28 02:28:00,
2013-04-27 22:33:00,54.5,40.9,30.24,ENE,59,2.0,4.0,60,0.00,,CLR,0.00,VWS V14.01,2013-04-28 02:33:00,
2013-04-27 22:38:00,54.1,41.0,30.24,NE,51,4.0,4.0,61,0.00,,CLR,0.00,VWS V14.01,2013-04-28 02:38:00,
2013-04-27 22:43:00,53.7,41.0,30.23,NE,56,1.0,5.0,62,0.00,,CLR,0.00,VWS V14.01,2013-04-28 02:43:00,
2013-04-27 22:48:00,53.4,40.7,30.24,NNE,31,2.0,5.0,62,0.00,,CLR,0.00,VWS V14.01,2013-04-28 02:48:00,
2013-04-27 22:53:00,53.2,40.5,30.23,NE,36,3.0,6.0,62,0.00,,CLR,0.00,VWS V14.01,2013-04-28 02:53:00,
2013-04-27 22:58:00,52.9,40.2,30.23,North,349,3.0,6.0,62,0.00,,CLR,0.00,VWS V14.01,2013-04-28 02:58:00,
2013-04-27 23:03:00,52.6,40.4,30.23,East,93,2.0,5.0,63,0.00,,CLR,0.00,VWS V14.01,2013-04-28 03:03:00,
2013-04-27 23:08:00,52.4,40.6,30.23,NE,34,0.0,5.0,64,0.00,,CLR,0.00,VWS V14.01,2013-04-28 03:08:00,
2013-04-27 23:13:00,52.2,40.8,30.23,NE,39,4.0,6.0,65,0.00,,CLR,0.00,VWS V14.01,2013-04-28 03:13:00,
2013-04-27 23:18:00,52.6,39.5,30.23,NE,44,2.0,6.0,61,0.00,,CLR,0.00,VWS V14.01,2013-04-28 03:18:00,
2013-04-27 23:23:00,52.9,39.8,30.24,SE,145,0.0,6.0,61,0.00,,CLR,0.00,VWS V14.01,2013-04-28 03:23:00,
2013-04-27 23:28:00,52.5,40.3,30.24,East,92,0.0,6.0,63,0.00,,CLR,0.00,VWS V14.01,2013-04-28 03:28:00,
2013-04-27 23:33:00,52.2,40.0,30.24,NE,45,0.0,2.0,63,0.00,,FEW002,0.00,VWS V14.01,2013-04-28 03:33:00,
2013-04-27 23:38:00,51.9,40.1,30.24,NE,41,0.0,2.0,64,0.00,,FEW002,0.00,VWS V14.01,2013-04-28 03:38:00,
2013-04-27 23:43:00,51.5,40.1,30.23,NE,41,0.0,2.0,65,0.00,,FEW002,0.00,VWS V14.01,2013-04-28 03:43:00,
2013-04-27 23:48:00,51.2,40.2,30.23,ENE,76,0.0,3.0,66,0.00,,FEW002,0.00,VWS V14.01,2013-04-28 03:48:00,
2013-04-27 23:53:00,50.9,40.3,30.23,NNE,20,0.0,3.0,67,0.00,,FEW002,0.00,VWS V14.01,2013-04-28 03:53:00,
2013-04-27 23:58:00,50.5,40.3,30.24,NNE,19,0.0,3.0,68,0.00,,FEW002,0.00,VWS V14.01,2013-04-28 03:58:00,